Location: Jihlava
(49.4000°N, 15.5830°E)
Time: 13:50:14
(UTC+02:00)

ISS - Visible Passes

Search period start: 20 May 2018 00:00
Search period end: 30 May 2018 00:00
Orbit: 402 x 407 km, 51.6° (Epoch: 20 May)

Date Brightness Start Highest point End Pass type
(mag) Time Alt. Az. Time Alt. Az. Time Alt. Az.
20 May -2.7 00:06:25 33° ENE 00:06:25 33° ENE 00:08:22 10° ENE visible
20 May -3.2 01:38:57 13° WNW 01:41:43 55° N 01:44:56 10° E visible
20 May -3.9 03:15:05 10° WNW 03:18:21 88° SSW 03:21:38 10° ESE visible
20 May -1.9 21:35:35 10° SSE 21:37:00 12° SE 21:38:25 10° ESE visible
20 May -3.9 23:09:43 10° SW 23:12:55 57° SSE 23:16:08 10° ENE visible
21 May -3.3 00:46:13 10° W 00:49:27 58° N 00:52:42 10° ENE visible
21 May -3.6 02:22:53 10° WNW 02:26:09 71° NNE 02:29:25 10° E visible
21 May -3.2 03:59:31 10° W 04:02:31 34° SSW 04:05:30 10° SE visible
21 May -3.3 22:17:46 10° SW 22:20:49 37° SSE 22:23:52 10° E visible
21 May -3.6 23:53:56 10° W 23:57:12 68° NNW 00:00:28 10° ENE visible
22 May -3.3 01:30:39 10° WNW 01:33:54 59° N 01:37:08 10° E visible
22 May -3.8 03:07:12 10° WNW 03:10:24 53° SSW 03:13:35 10° SE visible
22 May -2.7 21:26:05 10° SSW 21:28:45 23° SE 21:31:26 10° E visible
22 May -3.9 23:01:41 10° WSW 23:04:58 88° N 23:08:15 10° ENE visible
23 May -3.2 00:38:23 10° WNW 00:41:37 55° N 00:44:50 10° E visible
23 May -4.0 02:14:58 10° WNW 02:18:14 79° SSW 02:21:30 10° ESE visible
23 May -2.4 03:51:59 10° W 03:54:20 18° SW 03:56:40 10° S visible
23 May -3.9 22:09:30 10° WSW 22:12:45 66° SSE 22:16:00 10° ENE visible
23 May -3.2 23:46:05 10° W 23:49:19 56° N 23:52:33 10° ENE visible
24 May -3.8 01:22:43 10° WNW 01:26:00 77° NNE 01:27:48 24° E visible
24 May -1.8 02:59:24 10° W 03:00:12 15° W 03:00:12 15° W visible
24 May -3.4 22:53:45 10° W 22:57:01 64° N 23:00:16 10° ENE visible
25 May -3.4 00:30:27 10° WNW 00:33:43 63° N 00:35:35 23° E visible
25 May -1.9 02:07:02 10° WNW 02:08:09 19° W 02:08:09 19° W visible
25 May -3.7 22:01:27 10° WSW 22:04:43 80° NNW 22:08:00 10° ENE visible
25 May -3.2 23:38:10 10° WNW 23:41:24 56° N 23:44:27 11° E visible
26 May -3.1 01:14:43 10° WNW 01:17:03 42° W 01:17:03 42° W visible
26 May -3.1 22:45:50 10° W 22:49:04 55° N 22:52:17 10° ENE visible
27 May -3.9 00:22:26 10° WNW 00:25:43 85° NNE 00:26:11 63° E visible
27 May -3.3 21:53:28 10° W 21:56:43 60° N 21:59:58 10° ENE visible
27 May -3.5 23:30:09 10° WNW 23:33:25 67° NNE 23:35:24 21° E visible
28 May -1.9 01:06:44 10° W 01:08:01 20° W 01:08:01 20° W visible
28 May -3.2 22:37:50 10° WNW 22:41:04 58° N 22:44:18 10° E visible
29 May -3.7 00:14:22 10° WNW 00:17:18 56° SW 00:17:18 56° SW visible
29 May -3.1 21:45:28 10° W 21:48:41 55° N 21:51:55 10° E visible
29 May -4.0 23:22:03 10° WNW 23:25:19 86° SSW 23:26:37 34° ESE visible
